Simultaneous Nadir Overpasses (SNOs) Predictions

Prediction of SNOs between NOAA-19 and TERRA Satellite Orbit:

Table of predicted SNOs for the next 14.0 days since TLE Epoch: 2/11/2012
Index Date (NOAA-19) Time (NOAA-19) NOAA-19 Lat,Lon Date (TERRA) Time (TERRA) TERRA Lat,Lon Distance(km) Time Diff (sec)
1 02/11/2012 12:06:14 -68.95, 177.67 02/11/2012 12:06:26 -68.94, 177.67 1.82 12
2 02/11/2012 12:57:08 68.64, -14.66 02/11/2012 12:55:55 68.72, -14.96 15.00 73
3 02/13/2012 16:00:02 69.21, -61.12 02/13/2012 16:01:14 69.14, -60.78 15.01 72
4 02/13/2012 16:51:02 -68.89, 106.55 02/13/2012 16:50:47 -68.87, 106.50 2.51 15
5 02/15/2012 20:44:47 69.01,-132.05 02/15/2012 20:45:36 69.02,-132.03 0.70 49
6 02/15/2012 21:35:50 -68.84, 35.42 02/15/2012 21:35:07 -68.86, 35.40 2.37 43
7 02/18/2012 01:29:35 68.99, 156.78 02/18/2012 01:29:56 68.99, 156.85 2.83 21
8 02/18/2012 02:20:38 -68.80, -35.73 02/18/2012 02:19:28 -68.78, -35.78 3.14 70
9 02/20/2012 05:23:33 -69.43, -82.31 02/20/2012 05:24:44 -69.35, -81.41 36.42 71
10 02/20/2012 06:14:22 68.93, 85.67 02/20/2012 06:14:17 68.90, 85.66 2.72 5
11 02/20/2012 07:05:10 -67.93,-105.78 02/20/2012 07:04:02 -67.97,-107.84 86.05 68
12 02/22/2012 10:08:13 -69.00,-152.89 02/22/2012 10:09:09 -69.03,-152.90 3.07 56
13 02/22/2012 10:59:09 68.87, 14.55 02/22/2012 10:58:37 68.86, 14.53 1.49 32
14 02/24/2012 14:53:00 -68.96, 135.98 02/24/2012 14:53:29 -68.98, 135.96 3.13 29
15 02/24/2012 15:43:56 68.83, -56.59 02/24/2012 15:42:57 68.81, -56.62 2.07
